TimeMDT,TemperatureF,Dew PointF,Humidity,Sea Level PressureIn,VisibilityMPH,Wind Direction,Wind SpeedMPH,Gust SpeedMPH,PrecipitationIn,Events,Conditions,WindDirDegrees,DateUTC
12:48 AM,64.0,59.0,84,30.10,-9999.0,Calm,Calm,-,N/A,,Unknown,0,2013-07-02 06:48:00
1:48 AM,60.1,55.9,86,30.10,-9999.0,Calm,Calm,-,N/A,,Unknown,0,2013-07-02 07:48:00
2:48 AM,60.1,57.0,90,30.09,-9999.0,Calm,Calm,-,N/A,,Unknown,0,2013-07-02 08:48:00
3:48 AM,59.0,55.9,90,30.09,-9999.0,Calm,Calm,-,N/A,,Unknown,0,2013-07-02 09:48:00
4:48 AM,57.0,54.0,89,30.10,-9999.0,Calm,Calm,-,N/A,,Unknown,0,2013-07-02 10:48:00
5:48 AM,55.9,53.1,90,30.10,-9999.0,Calm,Calm,-,N/A,,Unknown,0,2013-07-02 11:48:00
6:48 AM,61.0,55.9,83,30.10,-9999.0,Calm,Calm,-,N/A,,Unknown,0,2013-07-02 12:48:00
7:48 AM,69.1,59.0,70,30.09,-9999.0,Calm,Calm,-,N/A,,Unknown,0,2013-07-02 13:48:00
8:48 AM,73.0,60.1,64,30.08,-9999.0,SE,3.5,-,N/A,,Unknown,140,2013-07-02 14:48:00
9:48 AM,79.0,61.0,54,30.07,-9999.0,ESE,4.6,-,N/A,,Unknown,110,2013-07-02 15:48:00
10:48 AM,82.9,60.1,46,30.06,-9999.0,ESE,4.6,-,N/A,,Unknown,120,2013-07-02 16:48:00
11:48 AM,86.0,59.0,40,30.04,-9999.0,SE,10.4,-,N/A,,Unknown,140,2013-07-02 17:48:00
12:48 PM,88.0,57.9,36,30.03,-9999.0,ESE,9.2,-,N/A,,Unknown,120,2013-07-02 18:48:00
1:48 PM,89.1,57.0,34,30.03,-9999.0,ESE,4.6,-,N/A,,Unknown,110,2013-07-02 19:48:00
2:48 PM,90.0,55.9,31,30.01,-9999.0,ESE,5.8,-,N/A,,Unknown,110,2013-07-02 20:48:00
3:48 PM,90.0,57.0,33,29.99,-9999.0,Variable,3.5,-,N/A,,Unknown,0,2013-07-02 21:48:00
4:48 PM,91.0,55.9,30,29.98,-9999.0,SSE,5.8,-,N/A,,Unknown,150,2013-07-02 22:48:00
5:48 PM,90.0,55.9,31,29.97,-9999.0,SE,6.9,-,N/A,,Unknown,140,2013-07-02 23:48:00
6:48 PM,89.1,57.0,34,29.94,-9999.0,SSE,6.9,-,N/A,,Unknown,150,2013-07-03 00:48:00
7:48 PM,84.9,59.0,41,29.93,-9999.0,SE,6.9,-,N/A,,Unknown,130,2013-07-03 01:48:00
8:48 PM,79.0,60.1,52,29.92,-9999.0,East,5.8,-,N/A,,Unknown,100,2013-07-03 02:48:00
9:48 PM,73.9,59.0,59,29.92,-9999.0,East,5.8,-,N/A,,Unknown,80,2013-07-03 03:48:00
10:48 PM,73.9,55.9,53,29.90,-9999.0,ENE,6.9,-,N/A,,Unknown,70,2013-07-03 04:48:00
11:48 PM,71.1,55.0,57,29.89,-9999.0,East,3.5,-,N/A,,Unknown,90,2013-07-03 05:48:00